This is the latest recevied weather packets stored in our database for station/object N5SRF. If no packets are shown the sender has not sent any weather packets the latest 10 day(s).
| Time | Temp. | Humidity | Pressure | Rain* | Wind** | Luminosity | Snow |
|---|---|---|---|---|---|---|---|
| 1787920263 | 25.56° C | 92% | 1020.8 hPa | 0 mm | - | 34 W/m² | - |
| 1787919955 | 25° C | 93% | 1020.8 hPa | 0 mm | - | 27 W/m² | - |
| 1787919655 | 25° C | 93% | 1020.5 hPa | 0 mm | - | 22 W/m² | - |
| 1787919350 | 24.44° C | 93% | 1020.5 hPa | 0 mm | - | 17 W/m² | - |
| 1787919046 | 24.44° C | 92% | 1020.7 hPa | 0 mm | - | 13 W/m² | - |
| 1787918735 | 24.44° C | 92% | 1020.6 hPa | 0 mm | - | 9 W/m² | - |
| 1787918434 | 24.44° C | 91% | 1020.5 hPa | 0 mm | - | 6 W/m² | - |
| 1787918127 | 25° C | 91% | 1020.6 hPa | 0 mm | - | 4 W/m² | - |
| 1787917821 | 25° C | 91% | 1020.4 hPa | 0 mm | - | 2 W/m² | - |
| 1787917518 | 25° C | 91% | 1020.6 hPa | 0 mm | - | 1 W/m² | - |
| 1787917215 | 25° C | 91% | 1020.5 hPa | 0 mm | - | 0 W/m² | - |
| 1787916914 | 25° C | 91% | 1020.5 hPa | 0 mm | - | 0 W/m² | - |
| 1787916613 | 25° C | 91% | 1020.6 hPa | 0 mm | - | 0 W/m² | - |
| 1787916308 | 25° C | 90% | 1020.4 hPa | 0 mm | - | 0 W/m² | - |
| 1787916002 | 25.56° C | 90% | 1020.4 hPa | 0 mm | - | 0 W/m² | - |
| 1787915698 | 25.56° C | 90% | 1020.5 hPa | 0 mm | - | 0 W/m² | - |
| 1787915393 | 25.56° C | 90% | 1020.4 hPa | 0 mm | - | 0 W/m² | - |
| 1787915088 | 25.56° C | 90% | 1020.2 hPa | 0 mm | - | 0 W/m² | - |
| 1787914786 | 25.56° C | 90% | 1020 hPa | 0 mm | - | 0 W/m² | - |
| 1787914481 | 26.11° C | 89% | 1020.1 hPa | 0 mm | - | 0 W/m² | - |
| 1787914176 | 26.11° C | 89% | 1020.2 hPa | 0 mm | - | 0 W/m² | - |
| 1787913876 | 26.11° C | 89% | 1020.4 hPa | 0 mm | - | 0 W/m² | - |
| 1787913570 | 26.11° C | 88% | 1020.2 hPa | 0 mm | - | 0 W/m² | - |
| 1787913269 | 26.11° C | 89% | 1020.1 hPa | 0 mm | - | 0 W/m² | - |
| 1787912969 | 26.11° C | 89% | 1020.2 hPa | 0 mm | - | 0 W/m² | - |
* Rain latest hour (hover to see other rain measurements)
** Current wind speed in m/s (hover to see current wind gust speed)